Location: Newark
(46.9000°N, 28.3500°E)
Time: 19:55:27
(UTC+00:00)

Explorer 7 - Pass Details

Date: 26 August 2019
Orbit: 485 x 680 km, 50.3° (Epoch: 14 September)

Event Time Altitude Azimuth Distance (km) Brightness Sun altitude
Rises 13:11:57 0° 285° (WNW) 2,849 11.0 36.9°
Reaches altitude 10° 13:15:08 10° 262° (W) 1,895 10.7 36.4°
Maximum altitude 13:17:34 15° 228° (SW) 1,568 10.6 36.0°
Drops below altitude 10° 13:19:55 10° 193° (SSW) 1,818 10.1 35.6°
Sets 13:22:52 0° 169° (S) 2,663 10.5 35.2°
